* Astronomy

Members Login
Post Info TOPIC: Asteroid 2010 OB


L

Posts: 131433
Date:
Asteroid 2010 OB
Permalink  
 


Orbital elements:
2010 OB Earth MOID = 0.0748 AU
Epoch 2010 July 23.0 TT = JDT 2455400.5 MPC
M 3.11671 (2000.0) P Q
n 0.22093185 Peri. 16.32722 +0.31998490 +0.94154793
a 2.7099659 Node 272.42950 -0.88060827 +0.25455938
e 0.5989923 Incl. 6.05239 -0.34948354 +0.22065136
P 4.46 H 21.9 G 0.15 U 8

MPEC 2010 - O11


__________________
Page 1 of 1  sorted by
 
Quick Reply

Please log in to post quick replies.



Create your own FREE Forum
Report Abuse
Powered by ActiveBoard